This is the latest recevied weather packets stored in our database for station/object WB5CFT. If no packets are shown the sender has not sent any weather packets the latest 10 day(s).
| Time | Temp. | Humidity | Pressure | Rain* | Wind** | Luminosity | Snow |
|---|---|---|---|---|---|---|---|
| 1777735181 | 13.33° C | 76% | 1026 hPa | 0 mm | - | 210 W/m² | - |
| 1777734878 | 13.89° C | 76% | 1025.9 hPa | 0 mm | - | 200 W/m² | - |
| 1777734575 | 13.33° C | 76% | 1026 hPa | 0 mm | - | 189 W/m² | - |
| 1777734272 | 13.33° C | 77% | 1026.1 hPa | 0 mm | - | 167 W/m² | - |
| 1777733968 | 12.78° C | 78% | 1026 hPa | 0 mm | - | 155 W/m² | - |
| 1777733665 | 12.78° C | 78% | 1026 hPa | 0 mm | - | 145 W/m² | - |
| 1777733361 | 12.78° C | 78% | 1026 hPa | 0 mm | - | 141 W/m² | - |
| 1777733058 | 12.78° C | 78% | 1026 hPa | 0 mm | - | 145 W/m² | - |
| 1777732754 | 12.78° C | 79% | 1026 hPa | 0 mm | - | 146 W/m² | - |
| 1777732451 | 12.78° C | 79% | 1025.9 hPa | 0 mm | - | 152 W/m² | - |
| 1777732149 | 12.78° C | 79% | 1025.8 hPa | 0 mm | - | 144 W/m² | - |
| 1777731846 | 12.78° C | 80% | 1026 hPa | 0 mm | - | 136 W/m² | - |
| 1777731542 | 12.78° C | 81% | 1026 hPa | 0 mm | - | 144 W/m² | - |
| 1777731240 | 12.78° C | 80% | 1025.9 hPa | 0 mm | - | 146 W/m² | - |
| 1777730938 | 12.78° C | 80% | 1026 hPa | 0 mm | - | 136 W/m² | - |
| 1777730635 | 12.78° C | 81% | 1026 hPa | 0 mm | - | 131 W/m² | - |
| 1777730331 | 12.78° C | 83% | 1026 hPa | 0 mm | - | 181 W/m² | - |
| 1777730028 | 11.67° C | 84% | 1025.9 hPa | 0 mm | - | 185 W/m² | - |
| 1777729724 | 11.67° C | 85% | 1026.1 hPa | 0 mm | - | 144 W/m² | - |
| 1777729422 | 11.67° C | 85% | 1026 hPa | 0 mm | - | 111 W/m² | - |
| 1777729118 | 11.67° C | 86% | 1025.7 hPa | 0 mm | - | 106 W/m² | - |
| 1777728815 | 11.11° C | 85% | 1025.9 hPa | 0 mm | - | 84 W/m² | - |
| 1777728512 | 11.11° C | 86% | 1025.9 hPa | 0 mm | - | 67 W/m² | - |
| 1777728209 | 11.11° C | 86% | 1025.5 hPa | 0 mm | - | 66 W/m² | - |
| 1777727906 | 11.11° C | 86% | 1025.4 hPa | 0 mm | - | 67 W/m² | - |
* Rain latest hour (hover to see other rain measurements)
** Current wind speed in m/s (hover to see current wind gust speed)